GER24M LFPG-LEBL

Flight info

Callsign GER24M
Flight time 1h 29m
Altitude 37000
Route ERIXU DCT ETAMO DCT VALKU DCT ATSUP DCT MINSO DCT DEGOL DCT PPG DCT ALBER
Aircraft A20N/M-SDE2E3FGHIRWXY/LB1

Departure

Time 2026-05-04 19:11
Airport Charles de Gaulle International Airport (LFPG)

Arrival

Time 2026-05-04 20:40
Airport Josep Tarradellas Barcelona-El Prat Airport (LEBL)
Time Latitude Longitude Altitude Speed Heading
2026-05-04 18:31 49.00652 2.58014 353 ft 0 kts 269°
2026-05-04 18:53 49.00653 2.58037 360 ft 4 kts 267°
2026-05-04 18:53 49.00654 2.58078 353 ft 4 kts 266°
2026-05-04 18:54 49.00655 2.58113 353 ft 4 kts 282°
2026-05-04 18:54 49.00642 2.58141 363 ft 4 kts 347°
2026-05-04 18:54 49.00616 2.58144 358 ft 3 kts 356°
2026-05-04 18:54 49.00612 2.58145 357 ft 0 kts 355°
2026-05-04 18:56 49.00614 2.58144 358 ft 1 kts 355°
2026-05-04 18:57 49.00645 2.58140 363 ft 8 kts 355°
2026-05-04 18:57 49.00732 2.58129 357 ft 16 kts 355°
2026-05-04 18:57 49.00863 2.58111 362 ft 21 kts 354°
2026-05-04 18:57 49.01013 2.58090 357 ft 23 kts 355°
2026-05-04 18:58 49.01174 2.58069 360 ft 24 kts 355°
2026-05-04 18:58 49.01340 2.58049 355 ft 24 kts 355°
2026-05-04 18:58 49.01511 2.58030 355 ft 25 kts 356°
2026-05-04 18:58 49.01685 2.58005 355 ft 25 kts 355°
2026-05-04 18:59 49.01863 2.57978 358 ft 26 kts 348°
2026-05-04 18:59 49.01990 2.57807 360 ft 26 kts 292°
2026-05-04 18:59 49.01991 2.57535 359 ft 26 kts 265°
2026-05-04 18:59 49.01978 2.57253 355 ft 27 kts 266°
2026-05-04 19:00 49.01963 2.56966 361 ft 28 kts 265°
2026-05-04 19:00 49.01930 2.56352 362 ft 29 kts 266°
2026-05-04 19:00 49.01918 2.56093 359 ft 19 kts 266°
2026-05-04 19:01 49.01907 2.55891 355 ft 20 kts 265°
2026-05-04 19:01 49.01897 2.55670 355 ft 22 kts 266°
2026-05-04 19:01 49.01884 2.55437 358 ft 23 kts 265°
2026-05-04 19:01 49.01870 2.55192 357 ft 24 kts 265°
2026-05-04 19:02 49.01862 2.54942 363 ft 24 kts 281°
2026-05-04 19:02 49.01986 2.54848 355 ft 21 kts 352°
2026-05-04 19:02 49.02020 2.54667 355 ft 20 kts 264°
2026-05-04 19:02 49.02006 2.54450 357 ft 21 kts 265°
2026-05-04 19:03 49.01990 2.54229 354 ft 22 kts 253°
2026-05-04 19:03 49.01897 2.54062 362 ft 20 kts 249°
2026-05-04 19:03 49.01885 2.53848 360 ft 21 kts 267°
2026-05-04 19:03 49.01874 2.53627 361 ft 21 kts 264°
2026-05-04 19:04 49.01864 2.53475 358 ft 22 kts 264°
2026-05-04 19:04 49.01846 2.53160 354 ft 23 kts 265°
2026-05-04 19:04 49.01834 2.52918 354 ft 23 kts 265°
2026-05-04 19:04 49.01825 2.52755 354 ft 23 kts 265°
2026-05-04 19:05 49.01811 2.52446 360 ft 18 kts 269°
2026-05-04 19:05 49.01856 2.52365 354 ft 15 kts 328°
2026-05-04 19:05 49.01884 2.52194 357 ft 13 kts 265°
2026-05-04 19:05 49.01877 2.52056 358 ft 13 kts 265°
2026-05-04 19:06 49.01869 2.51914 356 ft 14 kts 265°
2026-05-04 19:06 49.01862 2.51772 358 ft 13 kts 266°
2026-05-04 19:06 49.01856 2.51631 354 ft 13 kts 266°
2026-05-04 19:06 49.01853 2.51540 354 ft 13 kts 268°
2026-05-04 19:07 49.01867 2.51474 357 ft 0 kts 302°
2026-05-04 19:08 49.01888 2.51445 354 ft 7 kts 328°
2026-05-04 19:08 49.01922 2.51428 359 ft 8 kts 351°
2026-05-04 19:08 49.01966 2.51454 360 ft 0 kts 44°
2026-05-04 19:09 49.01967 2.51457 359 ft 1 kts 44°
2026-05-04 19:09 49.01984 2.51486 361 ft 5 kts 52°
2026-05-04 19:09 49.02011 2.51538 357 ft 7 kts 52°
2026-05-04 19:09 49.02049 2.51613 356 ft 11 kts 52°
2026-05-04 19:10 49.02089 2.51740 351 ft 14 kts 80°
2026-05-04 19:10 49.02094 2.51841 353 ft 14 kts 86°
2026-05-04 19:10 49.02126 2.52472 355 ft 86 kts 85°
2026-05-04 19:10 49.02190 2.53665 358 ft 138 kts 85°
2026-05-04 19:11 49.02269 2.55321 510 ft 166 kts 85°
2026-05-04 19:11 49.02340 2.57058 1153 ft 164 kts 86°
2026-05-04 19:11 49.02404 2.58793 1821 ft 162 kts 85°
2026-05-04 19:11 49.02503 2.60559 2291 ft 175 kts 83°
2026-05-04 19:12 49.02627 2.62439 2843 ft 182 kts 83°
2026-05-04 19:12 49.02841 2.65883 3619 ft 214 kts 84°
2026-05-04 19:12 49.03014 2.69053 4461 ft 236 kts 85°
2026-05-04 19:13 49.03146 2.71598 5077 ft 252 kts 85°
2026-05-04 19:13 49.03286 2.74338 5700 ft 265 kts 85°
2026-05-04 19:13 49.03431 2.77157 6327 ft 268 kts 85°
2026-05-04 19:13 49.03577 2.80007 6904 ft 271 kts 85°
2026-05-04 19:14 49.03724 2.82881 7544 ft 273 kts 85°
2026-05-04 19:14 49.03872 2.85783 8203 ft 276 kts 85°
2026-05-04 19:14 49.04021 2.88714 8874 ft 279 kts 85°
2026-05-04 19:14 49.04119 2.90668 9320 ft 280 kts 86°
2026-05-04 19:15 49.03641 2.94547 10209 ft 287 kts 118°
2026-05-04 19:15 49.02329 2.96912 10739 ft 302 kts 143°
2026-05-04 19:15 49.01104 2.97957 11116 ft 310 kts 159°
2026-05-04 19:15 48.98228 2.98374 11925 ft 325 kts 190°
2026-05-04 19:16 48.96759 2.97664 12347 ft 332 kts 205°
2026-05-04 19:16 48.94892 2.95561 12979 ft 340 kts 228°
2026-05-04 19:16 48.93208 2.91504 13821 ft 346 kts 241°
2026-05-04 19:16 48.92016 2.88315 14411 ft 347 kts 238°
2026-05-04 19:17 48.90656 2.85277 14974 ft 349 kts 233°
2026-05-04 19:17 48.89144 2.82381 15572 ft 350 kts 230°
2026-05-04 19:17 48.88092 2.80520 15975 ft 351 kts 228°
2026-05-04 19:17 48.85899 2.76878 16786 ft 354 kts 222°
2026-05-04 19:18 48.83834 2.74845 17427 ft 356 kts 205°
2026-05-04 19:18 48.82303 2.73804 17862 ft 358 kts 204°
2026-05-04 19:18 48.80004 2.72305 18475 ft 361 kts 203°
2026-05-04 19:18 48.76926 2.70322 19228 ft 364 kts 203°
2026-05-04 19:19 48.74590 2.68809 19817 ft 366 kts 204°
2026-05-04 19:19 48.73035 2.67797 20215 ft 368 kts 204°
2026-05-04 19:19 48.70679 2.66258 20821 ft 370 kts 204°
2026-05-04 19:19 48.67512 2.64187 21604 ft 373 kts 204°
2026-05-04 19:20 48.65118 2.62622 22144 ft 377 kts 204°
2026-05-04 19:20 48.62737 2.61066 22676 ft 379 kts 203°
2026-05-04 19:20 48.61096 2.59996 23049 ft 380 kts 203°
2026-05-04 19:20 48.57865 2.57890 23738 ft 383 kts 203°
2026-05-04 19:21 48.55414 2.56295 24209 ft 384 kts 203°
2026-05-04 19:21 48.52959 2.54699 24687 ft 385 kts 203°
2026-05-04 19:21 48.51328 2.53640 25004 ft 386 kts 203°
2026-05-04 19:21 48.48859 2.52038 25484 ft 387 kts 203°
2026-05-04 19:22 48.46377 2.50429 25807 ft 389 kts 203°
2026-05-04 19:22 48.43892 2.48820 25917 ft 389 kts 203°
2026-05-04 19:22 48.40566 2.46668 25932 ft 389 kts 203°
2026-05-04 19:22 48.38920 2.45604 25932 ft 388 kts 203°
2026-05-04 19:23 48.35636 2.43484 26034 ft 388 kts 203°
2026-05-04 19:23 48.33056 2.42271 26398 ft 391 kts 189°
2026-05-04 19:23 48.31220 2.42072 26703 ft 393 kts 180°
2026-05-04 19:23 48.28485 2.42252 27168 ft 394 kts 178°
2026-05-04 19:24 48.24861 2.42561 27796 ft 394 kts 178°
2026-05-04 19:24 48.22121 2.42796 28286 ft 394 kts 178°
2026-05-04 19:24 48.19389 2.43021 28777 ft 393 kts 178°
2026-05-04 19:24 48.17582 2.43166 29109 ft 392 kts 179°
2026-05-04 19:25 48.13926 2.43453 29607 ft 395 kts 179°
2026-05-04 19:25 48.11175 2.43666 29955 ft 397 kts 179°
2026-05-04 19:25 48.08441 2.43877 30253 ft 399 kts 179°
2026-05-04 19:25 48.05656 2.44092 30552 ft 402 kts 179°
2026-05-04 19:26 48.02857 2.44309 30848 ft 404 kts 179°
2026-05-04 19:26 48.00044 2.44526 31150 ft 406 kts 179°
2026-05-04 19:26 47.97219 2.44744 31456 ft 407 kts 179°
2026-05-04 19:26 47.95304 2.44892 31665 ft 408 kts 179°
2026-05-04 19:27 47.91550 2.45182 32075 ft 409 kts 179°
2026-05-04 19:27 47.88706 2.45400 32390 ft 409 kts 179°
2026-05-04 19:27 47.85858 2.45619 32718 ft 410 kts 179°
2026-05-04 19:27 47.83008 2.45838 33030 ft 410 kts 180°
2026-05-04 19:28 47.80160 2.46057 33354 ft 410 kts 180°
2026-05-04 19:28 47.77320 2.46274 33684 ft 408 kts 180°
2026-05-04 19:28 47.75445 2.46418 33899 ft 406 kts 180°
2026-05-04 19:28 47.71715 2.46703 34276 ft 405 kts 180°
2026-05-04 19:29 47.68907 2.46916 34557 ft 403 kts 180°
2026-05-04 19:29 47.66108 2.47129 34840 ft 402 kts 180°
2026-05-04 19:29 47.64262 2.47269 35029 ft 401 kts 180°
2026-05-04 19:29 47.60550 2.47551 35415 ft 398 kts 180°
2026-05-04 19:30 47.57789 2.47760 35705 ft 396 kts 180°
2026-05-04 19:30 47.55051 2.47967 36008 ft 393 kts 179°
2026-05-04 19:30 47.53244 2.48104 36213 ft 391 kts 179°
2026-05-04 19:30 47.50538 2.48308 36509 ft 388 kts 179°
2026-05-04 19:31 47.46969 2.48576 36728 ft 389 kts 179°
2026-05-04 19:31 47.42428 2.48916 36889 ft 392 kts 179°
2026-05-04 19:32 47.36970 2.49324 36913 ft 399 kts 179°
2026-05-04 19:32 47.30455 2.49812 36911 ft 409 kts 179°
2026-05-04 19:33 47.25630 2.50173 36921 ft 416 kts 179°
2026-05-04 19:33 47.19798 2.50609 36910 ft 422 kts 179°
2026-05-04 19:34 47.12992 2.51119 36917 ft 421 kts 179°
2026-05-04 19:34 47.08124 2.51482 36918 ft 421 kts 179°
2026-05-04 19:35 47.02273 2.51916 36912 ft 421 kts 179°
2026-05-04 19:35 46.95429 2.52423 36907 ft 421 kts 179°
2026-05-04 19:36 46.90562 2.52782 36906 ft 422 kts 179°
2026-05-04 19:36 46.84697 2.53215 36906 ft 422 kts 179°
2026-05-04 19:37 46.77877 2.53717 36913 ft 422 kts 179°
2026-05-04 19:37 46.73003 2.54075 36911 ft 422 kts 179°
2026-05-04 19:38 46.67135 2.54505 36909 ft 422 kts 179°
2026-05-04 19:38 46.60304 2.55004 36909 ft 423 kts 179°
2026-05-04 19:39 46.55385 2.55363 36910 ft 423 kts 179°
2026-05-04 19:39 46.49509 2.55792 36912 ft 423 kts 180°
2026-05-04 19:40 46.43671 2.56216 36912 ft 423 kts 180°
2026-05-04 19:40 46.37793 2.56642 36916 ft 423 kts 180°
2026-05-04 19:41 46.31915 2.57067 36912 ft 423 kts 180°
2026-05-04 19:41 46.26046 2.57492 36913 ft 422 kts 180°
2026-05-04 19:42 46.20183 2.57914 36910 ft 422 kts 180°
2026-05-04 19:42 46.14358 2.58332 36910 ft 422 kts 180°
2026-05-04 19:43 46.08499 2.58752 36916 ft 421 kts 180°
2026-05-04 19:43 46.02646 2.59171 36909 ft 421 kts 180°
2026-05-04 19:44 45.96797 2.59589 36913 ft 421 kts 180°
2026-05-04 19:44 45.90990 2.60003 36917 ft 421 kts 180°
2026-05-04 19:45 45.85140 2.60419 36920 ft 421 kts 180°
2026-05-04 19:45 45.79296 2.60834 36920 ft 421 kts 180°
2026-05-04 19:46 45.73449 2.61248 36927 ft 421 kts 180°
2026-05-04 19:46 45.67642 2.61658 36937 ft 420 kts 180°
2026-05-04 19:47 45.61801 2.62071 36940 ft 420 kts 180°
2026-05-04 19:47 45.55960 2.62482 36940 ft 420 kts 180°
2026-05-04 19:48 45.50124 2.62891 36946 ft 420 kts 180°
2026-05-04 19:48 45.44295 2.63300 36954 ft 419 kts 180°
2026-05-04 19:49 45.38468 2.63708 36947 ft 418 kts 180°
2026-05-04 19:49 45.32719 2.64110 36942 ft 416 kts 180°
2026-05-04 19:50 45.26930 2.64512 36944 ft 416 kts 180°
2026-05-04 19:50 45.21144 2.64915 36947 ft 416 kts 180°
2026-05-04 19:51 45.15357 2.65316 36952 ft 417 kts 180°
2026-05-04 19:51 45.09564 2.65716 36940 ft 415 kts 180°
2026-05-04 19:52 45.03835 2.66112 36945 ft 415 kts 180°
2026-05-04 19:52 44.98064 2.66511 36938 ft 415 kts 180°
2026-05-04 19:53 44.92290 2.66909 36936 ft 415 kts 180°
2026-05-04 19:53 44.86510 2.67305 36949 ft 417 kts 180°
2026-05-04 19:54 44.80734 2.67703 36952 ft 412 kts 180°
2026-05-04 19:54 44.74992 2.68096 36949 ft 415 kts 180°
2026-05-04 19:55 44.69263 2.68486 36942 ft 414 kts 180°
2026-05-04 19:55 44.63503 2.68879 36944 ft 415 kts 180°
2026-05-04 19:56 44.57737 2.69271 36943 ft 415 kts 180°
2026-05-04 19:56 44.51976 2.69663 36939 ft 414 kts 180°
2026-05-04 19:57 44.46209 2.70052 36935 ft 415 kts 180°
2026-05-04 19:57 44.40478 2.70440 36936 ft 415 kts 180°
2026-05-04 19:58 44.34708 2.70829 36937 ft 416 kts 180°
2026-05-04 19:58 44.28931 2.71218 36937 ft 416 kts 180°
2026-05-04 19:59 44.23151 2.71607 36938 ft 416 kts 180°
2026-05-04 19:59 44.17388 2.71994 36923 ft 414 kts 180°
2026-05-04 20:00 44.11689 2.72376 36927 ft 412 kts 180°
2026-05-04 20:00 44.05913 2.72760 36935 ft 417 kts 180°
2026-05-04 20:01 44.00117 2.73147 36933 ft 417 kts 180°
2026-05-04 20:01 43.94324 2.73533 36930 ft 417 kts 180°
2026-05-04 20:02 43.88531 2.73918 36931 ft 417 kts 180°
2026-05-04 20:02 43.82727 2.74302 36930 ft 418 kts 180°
2026-05-04 20:03 43.76923 2.74685 36925 ft 419 kts 180°
2026-05-04 20:03 43.71129 2.75069 36924 ft 416 kts 181°
2026-05-04 20:04 43.65320 2.75451 36931 ft 419 kts 181°
2026-05-04 20:04 43.59552 2.75833 36931 ft 417 kts 181°
2026-05-04 20:05 43.53745 2.76215 36927 ft 419 kts 181°
2026-05-04 20:05 43.47917 2.76596 36935 ft 420 kts 181°
2026-05-04 20:06 43.42070 2.76978 36936 ft 421 kts 181°
2026-05-04 20:06 43.36226 2.77360 36937 ft 421 kts 181°
2026-05-04 20:07 43.30379 2.77742 36923 ft 421 kts 181°
2026-05-04 20:07 43.27454 2.77932 36682 ft 420 kts 181°
2026-05-04 20:07 43.24575 2.78120 36179 ft 420 kts 181°
2026-05-04 20:07 43.21662 2.78309 35575 ft 418 kts 181°
2026-05-04 20:08 43.18764 2.78497 34993 ft 416 kts 181°
2026-05-04 20:08 43.15882 2.78684 34415 ft 413 kts 181°
2026-05-04 20:08 43.13020 2.78870 33833 ft 411 kts 180°
2026-05-04 20:08 43.10168 2.79054 33174 ft 409 kts 180°
2026-05-04 20:09 43.07314 2.79236 32528 ft 413 kts 180°
2026-05-04 20:09 43.04421 2.79420 31912 ft 420 kts 180°
2026-05-04 20:09 43.01483 2.79606 31307 ft 424 kts 179°
2026-05-04 20:09 42.98526 2.79795 30705 ft 427 kts 179°
2026-05-04 20:10 42.95554 2.79986 30076 ft 427 kts 179°
2026-05-04 20:10 42.92631 2.80174 29362 ft 425 kts 179°
2026-05-04 20:10 42.89653 2.80367 28615 ft 419 kts 179°
2026-05-04 20:10 42.87736 2.80492 28160 ft 413 kts 179°
2026-05-04 20:11 42.83951 2.80736 27261 ft 410 kts 179°
2026-05-04 20:11 42.81108 2.80918 26595 ft 408 kts 179°
2026-05-04 20:11 42.78278 2.81099 25974 ft 406 kts 179°
2026-05-04 20:11 42.75464 2.81279 25383 ft 404 kts 179°
2026-05-04 20:12 42.72667 2.81457 24800 ft 401 kts 179°
2026-05-04 20:12 42.69894 2.81634 24235 ft 398 kts 179°
2026-05-04 20:12 42.67143 2.81809 23708 ft 394 kts 179°
2026-05-04 20:12 42.64421 2.81983 23132 ft 390 kts 179°
2026-05-04 20:13 42.61730 2.82155 22583 ft 385 kts 179°
2026-05-04 20:13 42.59070 2.82326 22080 ft 380 kts 179°
2026-05-04 20:13 42.56450 2.82493 21601 ft 374 kts 179°
2026-05-04 20:13 42.53850 2.82658 21136 ft 374 kts 179°
2026-05-04 20:14 42.51260 2.82821 20675 ft 372 kts 179°
2026-05-04 20:14 42.48684 2.82984 20223 ft 369 kts 179°
2026-05-04 20:14 42.46171 2.83095 19772 ft 364 kts 183°
2026-05-04 20:14 42.43651 2.82844 19342 ft 362 kts 189°
2026-05-04 20:15 42.41186 2.82250 18920 ft 359 kts 192°
2026-05-04 20:15 42.38740 2.81634 18535 ft 356 kts 192°
2026-05-04 20:15 42.37125 2.81232 18284 ft 356 kts 192°
2026-05-04 20:15 42.33873 2.80431 17656 ft 353 kts 192°
2026-05-04 20:16 42.32280 2.80040 17339 ft 351 kts 192°
2026-05-04 20:16 42.29077 2.79255 16709 ft 348 kts 192°
2026-05-04 20:16 42.26733 2.78681 16257 ft 346 kts 192°
2026-05-04 20:16 42.24369 2.78102 15799 ft 344 kts 192°
2026-05-04 20:17 42.22020 2.77527 15352 ft 342 kts 192°
2026-05-04 20:17 42.19686 2.76956 14918 ft 340 kts 192°
2026-05-04 20:17 42.17360 2.76388 14482 ft 338 kts 192°
2026-05-04 20:17 42.15051 2.75824 14063 ft 337 kts 192°
2026-05-04 20:18 42.12752 2.75263 13622 ft 335 kts 192°
2026-05-04 20:18 42.10464 2.74705 13149 ft 333 kts 192°
2026-05-04 20:18 42.08186 2.74149 12684 ft 331 kts 192°
2026-05-04 20:18 42.05916 2.73598 12288 ft 331 kts 192°
2026-05-04 20:19 42.03689 2.73057 11887 ft 327 kts 192°
2026-05-04 20:19 42.01468 2.72517 11492 ft 322 kts 192°
2026-05-04 20:19 41.99286 2.71987 11181 ft 315 kts 192°
2026-05-04 20:19 41.97159 2.71471 10898 ft 307 kts 192°
2026-05-04 20:20 41.95088 2.70969 10676 ft 297 kts 193°
2026-05-04 20:20 41.93753 2.70646 10548 ft 291 kts 193°
2026-05-04 20:20 41.91143 2.70013 10283 ft 279 kts 193°
2026-05-04 20:20 41.89253 2.69555 10092 ft 277 kts 193°
2026-05-04 20:21 41.87372 2.69096 9823 ft 278 kts 193°
2026-05-04 20:21 41.85484 2.68639 9609 ft 274 kts 193°
2026-05-04 20:21 41.81718 2.67727 9186 ft 274 kts 193°
2026-05-04 20:22 41.79842 2.67273 8980 ft 273 kts 193°
2026-05-04 20:22 41.77972 2.66824 8824 ft 273 kts 193°
2026-05-04 20:22 41.76098 2.66374 8671 ft 273 kts 193°
2026-05-04 20:22 41.74255 2.65931 8519 ft 272 kts 193°
2026-05-04 20:23 41.72392 2.65484 8365 ft 272 kts 193°
2026-05-04 20:23 41.70535 2.65037 8240 ft 270 kts 193°
2026-05-04 20:23 41.68691 2.64595 8137 ft 270 kts 193°
2026-05-04 20:23 41.66832 2.64149 8042 ft 273 kts 193°
2026-05-04 20:24 41.65057 2.63385 7937 ft 266 kts 213°
2026-05-04 20:24 41.63720 2.61734 7840 ft 263 kts 237°
2026-05-04 20:24 41.62993 2.59512 7726 ft 263 kts 251°
2026-05-04 20:24 41.62428 2.57189 7574 ft 262 kts 252°
2026-05-04 20:25 41.61871 2.54909 7423 ft 261 kts 251°
2026-05-04 20:25 41.61303 2.52607 7283 ft 260 kts 252°
2026-05-04 20:25 41.60734 2.50316 7134 ft 260 kts 251°
2026-05-04 20:25 41.60160 2.48013 6998 ft 262 kts 251°
2026-05-04 20:26 41.59586 2.45715 6849 ft 259 kts 252°
2026-05-04 20:26 41.59015 2.43435 6733 ft 260 kts 252°
2026-05-04 20:26 41.58441 2.41144 6568 ft 260 kts 252°
2026-05-04 20:26 41.57868 2.38859 6382 ft 259 kts 252°
2026-05-04 20:27 41.57276 2.36592 6177 ft 257 kts 248°
2026-05-04 20:27 41.56452 2.34471 6014 ft 259 kts 238°
2026-05-04 20:27 41.55497 2.32473 5823 ft 257 kts 239°
2026-05-04 20:27 41.54558 2.30482 5624 ft 250 kts 239°
2026-05-04 20:28 41.53631 2.28555 5410 ft 244 kts 233°
2026-05-04 20:28 41.52309 2.27196 5164 ft 242 kts 203°
2026-05-04 20:28 41.50651 2.26927 4917 ft 244 kts 173°
2026-05-04 20:28 41.49065 2.27701 4675 ft 246 kts 158°
2026-05-04 20:29 41.47523 2.28687 4414 ft 245 kts 156°
2026-05-04 20:29 41.46217 2.30117 4154 ft 247 kts 126°
2026-05-04 20:29 41.45623 2.32213 3910 ft 249 kts 94°
2026-05-04 20:29 41.45891 2.34460 3718 ft 247 kts 67°
2026-05-04 20:30 41.46608 2.36501 3525 ft 239 kts 60°
2026-05-04 20:30 41.47373 2.38400 3454 ft 226 kts 60°
2026-05-04 20:30 41.48091 2.40230 3403 ft 224 kts 62°
2026-05-04 20:30 41.48786 2.42102 3311 ft 224 kts 63°
2026-05-04 20:31 41.49449 2.43976 3231 ft 224 kts 64°
2026-05-04 20:31 41.50096 2.45856 3172 ft 222 kts 65°
2026-05-04 20:31 41.50416 2.47850 3111 ft 223 kts 97°
2026-05-04 20:31 41.49905 2.49730 3029 ft 217 kts 131°
2026-05-04 20:32 41.48731 2.50874 2980 ft 209 kts 167°
2026-05-04 20:32 41.47323 2.50901 2978 ft 203 kts 199°
2026-05-04 20:32 41.45976 2.50330 2975 ft 203 kts 202°
2026-05-04 20:32 41.45099 2.49901 2978 ft 202 kts 208°
2026-05-04 20:33 41.43984 2.48827 2981 ft 198 kts 231°
2026-05-04 20:33 41.42980 2.46770 2977 ft 197 kts 244°
2026-05-04 20:33 41.42403 2.45122 2980 ft 196 kts 247°
2026-05-04 20:33 41.41842 2.43457 2978 ft 198 kts 246°
2026-05-04 20:34 41.41282 2.41811 2983 ft 198 kts 247°
2026-05-04 20:34 41.40899 2.40688 2983 ft 197 kts 247°
2026-05-04 20:34 41.40152 2.38494 2983 ft 196 kts 247°
2026-05-04 20:34 41.39585 2.36827 2994 ft 198 kts 247°
2026-05-04 20:35 41.39021 2.35171 2987 ft 195 kts 247°
2026-05-04 20:35 41.38459 2.33518 2991 ft 198 kts 247°
2026-05-04 20:35 41.37891 2.31851 2990 ft 196 kts 247°
2026-05-04 20:35 41.37328 2.30199 2993 ft 195 kts 246°
2026-05-04 20:36 41.36795 2.28635 2994 ft 180 kts 247°
2026-05-04 20:36 41.36454 2.27635 2939 ft 175 kts 247°
2026-05-04 20:36 41.35782 2.25661 2576 ft 176 kts 247°
2026-05-04 20:36 41.35281 2.24190 2334 ft 174 kts 247°
2026-05-04 20:37 41.34946 2.23207 2178 ft 177 kts 246°
2026-05-04 20:37 41.34292 2.21289 1859 ft 160 kts 247°
2026-05-04 20:37 41.33854 2.20004 1663 ft 144 kts 246°
2026-05-04 20:37 41.33461 2.18853 1473 ft 135 kts 247°
2026-05-04 20:38 41.33067 2.17695 1287 ft 136 kts 246°
2026-05-04 20:38 41.32681 2.16565 1102 ft 138 kts 246°
2026-05-04 20:38 41.32287 2.15409 904 ft 138 kts 245°
2026-05-04 20:38 41.31892 2.14263 700 ft 136 kts 245°
2026-05-04 20:39 41.31499 2.13137 509 ft 135 kts 246°
2026-05-04 20:39 41.31121 2.12002 325 ft 133 kts 247°
2026-05-04 20:39 41.30752 2.10891 192 ft 133 kts 246°
2026-05-04 20:39 41.30492 2.10139 70 ft 135 kts 246°
2026-05-04 20:40 41.30038 2.08785 20 ft 92 kts 245°
2026-05-04 20:40 41.29850 2.08244 20 ft 47 kts 241°
2026-05-04 20:40 41.29668 2.07905 16 ft 41 kts 220°
2026-05-04 20:40 41.29626 2.07858 17 ft 0 kts 219°
2026-05-04 20:41 41.29602 2.07832 18 ft 8 kts 217°
2026-05-04 20:41 41.29560 2.07793 21 ft 14 kts 214°
2026-05-04 20:41 41.29425 2.07690 20 ft 18 kts 167°
2026-05-04 20:41 41.29384 2.07713 20 ft 6 kts 156°
2026-05-04 20:42 41.29349 2.07782 19 ft 10 kts 63°
2026-05-04 20:42 41.29364 2.07819 18 ft 0 kts 63°